Theta_e
325 325 327 327 327 327 328 328 329 329 329 328 330 331 331 332 328 328 322 327 327 329 326 326 325 324 323 319 319 316 306 303 306 306 307 310 308 315 317 316 319 322 321 325 333
324 324 325 326 326 327 327 327 327 329 329 328 328 330 330 329 328 323 332 332 331 329 324 321 319 320 317 316 316 312 306 305 310 310 308 308 307 311 312 314 316 319 325 328 333
322 323 324 325 325 326 327 327 326 327 328 328 328 329 328 329 319 319 333 333 333 328 325 324 321 319 314 316 314 312 305 310 310 311 310 310 307 311 310 309 315 316 320 326 329
321 322 323 324 324 326 326 326 326 326 327 327 327 328 326 326 302 320 331 334 333 328 324 321 319 314 311 310 314 308 311 311 311 312 311 309 312 308 309 312 316 317 321 326 327
319 320 321 322 323 324 325 326 326 326 326 326 326 326 324 314 313 323 328 332 329 326 321 319 315 314 309 310 311 309 310 311 313 313 313 313 311 310 310 313 314 317 317 323 326
318 319 320 321 322 323 324 325 325 324 325 326 326 325 317 306 321 325 325 329 326 324 321 320 316 317 312 310 308 310 310 310 311 310 311 308 309 312 312 312 312 313 316 319 324
317 317 318 320 321 322 322 323 324 324 324 325 326 323 313 311 322 324 324 324 326 323 319 322 321 315 314 309 312 310 305 308 309 310 308 310 305 305 313 316 313 311 313 315 319
316 316 317 318 319 321 322 322 323 323 323 324 325 320 306 323 325 321 323 321 324 324 322 322 322 316 312 312 309 305 306 300 307 308 309 306 298 306 311 313 313 314 314 315 317
314 315 316 316 318 319 320 321 321 322 323 322 316 312 303 321 317 321 323 318 320 321 320 320 318 312 311 305 302 303 297 299 301 307 306 305 301 306 310 311 311 314 315 316 316
313 314 314 315 316 318 319 320 320 321 319 316 313 304 308 307 315 319 322 320 316 315 313 310 309 304 305 302 293 295 297 298 298 303 304 302 302 306 308 308 309 311 313 314 316
311 312 313 314 315 317 317 314 307 304 308 300 301 301 304 312 318 315 319 316 315 311 302 305 299 295 301 303 302 300 298 297 300 304 300 300 300 303 306 307 307 308 309 311 314
311 311 312 313 314 315 314 305 307 308 299 304 303 304 307 312 305 310 318 307 305 299 304 300 294 302 304 303 300 300 297 297 300 302 300 299 299 303 305 305 307 308 308 308 309
309 311 312 312 313 312 308 307 315 311 297 298 301 302 304 310 303 305 312 308 302 298 300 296 298 303 300 299 297 297 297 296 295 300 301 299 296 298 302 305 306 308 309 309 309
309 310 310 311 306 305 304 311 314 311 287 290 294 299 304 307 301 310 313 307 298 297 299 298 302 299 298 296 298 293 300 298 296 294 290 298 288 297 300 301 304 305 307 308 309
308 309 309 310 303 300 304 311 309 303 276 291 293 306 305 300 302 304 313 306 296 296 295 293 295 297 296 297 299 295 301 298 297 294 293 293 288 294 299 297 301 304 306 308 309
307 308 309 306 306 306 307 309 301 282 277 285 294 295 295 298 300 303 303 306 305 296 297 294 299 298 298 301 301 301 298 297 297 294 285 292 291 291 296 298 301 303 305 307 308
306 307 306 306 298 308 308 300 281 277 287 283 287 294 293 292 295 298 296 294 293 286 286 291 292 297 297 295 298 298 294 286 284 284 284 292 290 293 299 301 302 302 304 306 308
306 306 305 304 308 306 302 288 276 284 285 290 291 293 290 293 293 294 293 290 296 294 288 286 283 293 296 292 291 294 293 286 279 281 284 290 285 291 300 302 303 304 305 306 306
305 303 300 302 306 304 292 280 281 286 289 288 289 287 288 291 292 292 292 292 294 297 289 287 287 297 298 299 297 293 289 296 287 284 284 288 292 297 300 299 300 301 303 304 305
301 298 297 304 305 299 286 283 284 291 292 292 285 288 285 289 289 290 290 295 294 298 299 293 286 294 297 300 300 296 298 287 288 280 279 285 287 288 294 296 299 300 301 301 304
297 289 299 304 301 290 281 283 286 292 294 290 288 287 289 289 290 289 290 294 297 297 299 296 292 287 293 291 291 292 291 292 292 288 282 280 285 296 296 298 298 300 301 302 303
294 283 301 302 284 285 284 286 291 290 292 293 293 292 290 291 290 289 289 292 298 298 293 297 292 285 287 292 296 295 292 292 286 283 286 286 286 298 299 299 300 300 301 302 302
286 290 301 298 280 284 287 287 291 289 288 290 290 293 293 291 286 290 291 296 298 297 294 295 290 283 284 288 292 290 292 293 292 290 285 283 286 297 298 299 301 300 300 301 302
288 284 290 292 290 286 285 285 285 293 291 292 292 293 292 290 292 289 291 294 298 298 298 297 290 287 283 286 290 287 291 293 291 285 286 288 290 294 296 298 300 299 300 300 301
291 286 287 281 283 287 287 288 285 285 291 291 290 291 290 286 288 288 291 291 296 298 297 295 287 289 290 288 291 290 290 291 289 290 286 290 290 294 297 298 298 299 299 299 299
288 287 290 286 288 287 287 286 286 288 289 287 289 292 292 288 289 287 290 291 291 295 294 296 287 289 285 289 290 288 290 291 291 292 291 292 291 297 299 299 297 297 298 297 298
299 298 294 288 287 286 285 288 289 291 291 293 293 292 290 292 295 296 296 296 295 293 291 291 287 285 282 287 286 282 286 290 291 293 292 288 293 297 295 296 297 297 298 296 294
Wind_Speed
18 19 18 18 16 14 14 12 10 10 10 10 9 8 4 6 4 9 13 3 0 2 6 6 6 5 6 4 3 2 8 12 14 9 5 4 5 4 5 9 3 3 4 4 13
16 18 19 19 18 16 14 13 11 10 11 9 9 6 5 10 13 18 9 5 5 2 6 7 8 5 7 4 4 7 10 15 10 11 7 2 4 7 5 9 10 9 5 5 13
17 17 19 20 20 17 16 14 12 11 10 10 9 5 9 9 12 19 12 11 8 6 4 5 6 8 11 7 7 7 14 14 8 8 5 8 5 2 7 12 11 10 10 9 11
20 18 17 19 20 19 17 15 13 11 10 10 10 11 11 8 12 6 3 16 12 8 7 6 8 11 11 12 12 10 13 11 8 4 4 9 6 6 9 12 3 8 8 12 13
19 18 18 18 20 21 19 16 15 13 11 10 11 14 7 13 19 7 3 11 13 13 13 11 12 13 14 10 10 14 17 7 12 8 10 11 12 12 10 10 8 5 4 8 11
21 18 17 17 18 21 20 18 15 15 12 11 10 16 14 24 8 16 2 10 14 16 15 13 7 11 9 13 11 6 12 11 10 12 9 9 14 13 9 2 8 8 10 9 12
20 20 19 16 16 19 20 20 16 15 14 11 10 12 15 21 3 11 11 10 12 14 13 12 13 6 8 8 10 7 11 13 13 13 14 7 17 17 13 18 11 9 10 9 10
18 19 19 17 16 17 19 19 18 17 15 12 8 13 11 15 5 7 13 10 9 10 10 7 6 10 9 2 5 7 14 16 15 16 9 7 20 13 12 16 20 17 14 11 11
19 18 17 18 16 16 18 19 19 17 14 12 10 11 15 6 13 12 11 14 12 9 5 4 7 10 9 13 13 17 16 19 18 9 9 12 14 12 4 11 16 17 17 15 13
20 18 17 16 15 14 17 17 17 14 13 8 13 9 10 20 14 17 14 15 13 13 8 5 5 6 11 16 20 18 19 18 17 5 10 16 18 16 11 9 12 12 13 14 15
21 19 18 16 17 13 12 5 7 10 16 8 14 18 9 11 15 15 17 16 15 17 12 9 7 17 30 21 21 19 18 19 16 9 5 18 18 18 17 17 16 16 18 18 18
22 21 20 18 18 15 12 14 20 4 14 15 18 28 20 19 11 18 15 16 15 17 19 10 20 31 16 21 19 21 22 20 13 1 8 16 20 16 21 21 19 20 20 19 19
23 22 21 20 19 12 17 23 13 5 3 11 12 15 26 17 18 21 20 21 14 22 23 20 20 20 20 22 17 22 24 20 18 9 14 16 24 21 26 23 24 21 21 19 19
24 24 23 21 17 12 20 14 8 8 8 9 15 8 24 14 12 14 20 15 5 21 19 16 23 12 23 19 19 22 22 15 8 7 12 2 14 16 16 15 11 14 15 15 15
24 24 24 26 10 19 6 9 5 0 22 18 14 7 19 23 15 11 19 15 11 9 5 6 4 20 19 27 17 17 15 11 15 16 13 18 7 12 16 21 14 12 15 14 13
21 23 22 16 13 18 15 11 5 10 11 9 18 22 21 24 14 7 8 5 10 8 7 1 1 3 11 19 22 11 11 10 10 7 7 22 17 16 16 20 13 3 7 6 4
21 21 18 11 18 15 15 6 9 10 0 12 15 27 30 21 22 15 18 15 9 8 7 6 11 3 2 6 2 16 16 4 6 6 12 3 11 18 14 15 10 10 13 9 9
22 21 15 11 13 17 13 11 13 7 9 7 18 28 22 25 22 17 19 16 15 15 5 7 8 17 15 7 6 9 14 6 8 8 13 6 11 7 4 6 7 9 9 9 7
21 10 10 12 15 13 11 13 14 6 10 13 20 26 16 24 13 18 20 19 19 20 13 7 5 9 21 15 14 7 7 4 2 2 2 7 12 15 13 13 11 11 8 5 4
11 10 13 13 11 11 11 20 6 6 19 22 13 15 13 28 18 23 23 25 19 25 20 12 4 6 8 8 12 12 10 4 2 5 7 9 12 10 8 9 10 9 8 8 6
10 8 10 16 9 8 9 6 5 9 12 20 18 14 19 29 29 29 25 15 28 28 23 10 8 5 7 8 16 7 12 8 5 6 6 7 6 6 5 7 12 6 5 6 8
12 11 13 15 10 3 6 9 8 11 13 7 8 15 23 28 25 24 23 16 24 21 25 15 7 5 5 5 7 13 13 12 8 6 6 5 8 5 2 7 7 4 7 11 12
7 5 12 14 10 6 7 8 10 13 10 7 10 15 19 19 14 20 20 19 18 22 22 11 5 6 2 3 1 5 11 12 13 2 12 7 6 0 5 7 6 9 10 14 12
6 7 6 9 9 11 12 15 6 14 13 12 13 11 18 19 3 16 18 8 15 19 10 12 4 9 11 4 11 7 16 19 16 5 13 15 20 8 9 7 12 13 14 15 17
5 5 5 12 14 9 10 20 15 7 6 6 11 21 25 16 10 16 16 7 11 16 13 13 12 12 10 3 10 14 18 19 18 21 13 25 23 18 17 11 10 13 15 17 15
8 8 5 16 22 19 12 15 25 9 13 12 16 27 24 20 13 26 15 16 12 14 14 12 4 11 3 4 6 8 15 19 22 21 21 27 24 15 17 11 7 10 13 13 16
6 7 10 18 18 17 11 13 21 22 11 15 22 26 16 14 9 12 11 11 11 14 10 11 6 5 6 5 2 4 19 19 19 19 22 21 28 13 17 14 12 15 14 12 14
Wind_Direction
248 241 232 229 230 228 231 228 220 215 221 239 240 246 221 190 183 225 240 272 178 11 305 303 268 297 286 275 282 267 264 261 263 266 273 81 291 119 338 274 219 200 295 65 127
248 243 241 234 230 229 226 228 224 209 214 223 234 226 208 180 230 238 216 140 175 197 255 280 280 298 267 260 246 249 246 258 316 321 281 240 281 315 273 233 237 223 176 148 140
243 240 237 236 230 227 224 223 223 214 208 212 218 199 159 195 267 253 184 173 191 210 257 278 273 272 259 251 234 238 251 258 256 293 306 301 241 205 264 269 259 266 199 182 162
239 236 235 232 232 227 222 217 216 218 209 207 204 153 166 203 229 55 109 172 174 206 227 236 241 242 250 237 238 260 249 279 269 274 277 268 320 246 235 258 359 333 316 169 193
241 235 229 229 229 230 224 218 211 213 210 210 212 152 163 222 230 103 99 171 195 203 218 224 238 239 241 243 236 246 260 255 263 263 268 282 263 275 267 258 270 262 256 210 209
238 236 228 230 228 227 227 220 214 210 208 212 213 169 220 233 227 212 156 165 200 207 212 219 230 242 283 246 228 344 258 254 258 257 251 265 267 260 257 254 241 232 245 230 218
238 234 229 224 228 225 225 225 214 207 205 209 223 186 226 224 239 196 195 195 201 208 216 210 230 247 247 248 232 262 263 251 241 253 254 267 259 249 251 264 251 241 234 240 232
240 235 229 221 227 224 219 220 217 210 205 198 191 217 240 234 183 224 202 208 192 214 231 209 222 239 253 349 190 232 240 256 248 233 230 233 263 261 222 246 248 250 249 225 237
240 233 230 225 224 225 220 217 213 207 202 191 202 210 237 137 204 195 194 187 177 167 155 149 206 216 199 224 231 221 245 234 242 192 248 224 272 265 281 252 258 255 252 249 244
237 230 225 224 223 222 220 214 217 204 196 210 220 194 236 213 194 209 217 195 168 160 157 163 189 207 219 213 223 228 226 241 261 185 225 251 250 265 247 228 257 263 267 268 259
232 226 222 220 219 219 218 193 198 196 199 194 194 213 226 202 182 199 192 192 193 194 188 177 194 215 218 221 242 260 260 254 250 225 281 253 260 266 270 270 262 261 260 256 257
227 223 217 217 216 222 219 211 216 146 196 202 221 211 240 182 181 207 179 186 195 205 202 176 221 222 227 237 235 246 254 252 254 289 254 268 271 274 272 267 261 261 258 259 258
225 220 213 210 214 216 219 224 219 186 224 182 204 220 203 193 210 194 186 205 215 208 202 211 224 221 227 233 232 233 238 239 252 200 243 270 273 266 263 252 244 249 257 257 261
222 219 214 204 203 209 226 209 204 198 199 189 190 223 199 205 213 183 198 176 203 213 207 230 234 217 218 234 223 230 229 250 274 254 262 140 286 284 287 283 234 242 253 257 257
220 210 206 199 185 201 205 152 145 149 216 162 167 200 182 202 134 183 191 198 194 164 190 188 236 217 224 221 199 236 246 218 237 252 272 261 257 271 237 261 258 259 266 266 268
216 210 207 204 208 204 184 140 127 215 215 154 159 173 172 201 196 121 169 213 147 153 208 223 100 262 232 232 208 210 192 214 218 241 234 245 234 270 249 255 277 266 265 277 320
212 208 203 199 202 189 169 165 226 203 244 143 176 167 173 177 185 178 178 170 178 146 178 183 219 181 29 172 237 172 168 188 195 207 241 239 231 241 290 300 288 260 283 299 355
209 206 201 204 205 187 168 185 224 174 188 159 170 171 173 170 188 190 176 192 210 186 142 170 182 180 167 215 178 185 182 198 215 208 239 126 234 240 262 290 303 285 274 302 308
202 206 205 214 193 175 195 209 210 167 156 151 161 174 165 168 158 180 198 205 197 184 188 177 158 203 176 175 158 170 204 278 138 69 292 236 245 253 268 277 259 257 275 274 79
190 195 211 186 195 180 209 227 194 159 187 158 156 183 167 170 162 185 189 205 199 200 212 183 169 196 171 209 197 212 182 177 145 214 242 250 252 254 262 270 90 85 79 85 10
182 194 195 177 182 224 206 212 166 170 206 179 166 164 198 180 185 188 190 180 196 191 201 191 208 169 164 211 176 183 192 215 191 241 252 264 247 59 71 42 109 89 36 8 352
181 193 155 150 193 195 192 138 137 171 240 186 201 186 190 182 191 188 200 202 189 179 200 183 183 161 200 326 272 199 197 191 205 185 246 313 262 176 127 117 90 35 0 350 337
184 152 156 159 203 209 160 126 187 156 194 183 176 198 176 172 190 184 205 197 187 174 183 170 188 148 176 262 63 187 206 204 227 312 203 201 240 97 136 150 166 337 344 340 345
159 156 154 176 206 224 157 189 171 179 164 217 197 179 155 172 159 176 188 185 194 180 170 156 167 219 218 242 138 199 198 207 206 188 235 232 253 178 188 256 331 320 332 346 342
179 171 141 164 190 196 214 171 164 157 154 252 193 175 158 154 167 176 162 139 193 172 173 185 202 211 236 261 200 201 203 203 202 230 228 250 252 247 270 309 299 337 319 321 330
146 139 193 172 174 194 228 182 164 146 161 203 177 166 164 172 183 164 159 168 171 179 184 207 222 181 166 166 189 222 208 213 223 228 237 253 272 284 297 309 306 283 304 325 332
152 137 153 164 177 181 189 180 184 163 196 196 170 160 175 173 149 137 139 137 146 162 163 169 130 152 195 181 94 271 220 218 229 231 237 249 258 278 287 293 309 327 328 358 353